User: anonymous   Login
Location: Fort Wayne
(41.1310°N, 85.1290°W)
Time: 02:24:28
(UTC-04:00)
Language:

Cosmos 2056 Rocket - Orbit

View from above orbital plane
View from above orbital plane
View from above satellite
View from above satellite

Ground track
Ground track

The orbit data is extracted from the following two-line orbital elements,

1 20433U 90004B   18169.15487008  .00000030  00000-0  19143-4 0  9998
2 20433  74.0371  44.3037 0039951  84.2181  31.2481 14.36031618487739
Epoch (UTC): 18 June 2018 03:43:00
Eccentricity: 0.0039951
inclination: 74.0371°
perigee height: 743 km
apogee height: 800 km
right ascension of ascending node: 44.3037°
argument of perigee: 84.2181°
revolutions per day: 14.36031618
mean anomaly at epoch: 31.2481°
orbit number at epoch: 48773

The dashed part of the orbit path shows where the satellite is in the earth's shadow,  

DLR